Location: Melizzano
(41.1500°N, 14.5000°E)
Time: 20:15:18
(UTC+00:00)

Cosmos 1536 - Pass Details

Date: 11 May 2021
Orbit: 539 x 558 km, 82.5° (Epoch: 20 June)

Event Time Altitude Azimuth Distance (km) Brightness Sun altitude
Rises 21:05:47 0° 352° (N) 2,741 7.5 -25.2°
Reaches altitude 10° 21:07:58 10° 353° (N) 1,839 6.4 -25.4°
Enters shadow 21:11:08 54° 359° (N) 678 3.4 -25.7°
